Powrót do katalogu

H-2A R/B

AktywnyHEO
NORAD 28938·ROCKET BODY·🇯🇵 Japan

Wystrzelony Feb 18, 2006 z Tanegashima Space Center

Loading…

Następne Przeloty (najbliższe 24 godziny)

TLE

ŚwieżeSource: Space-Track

Epoka: Sep 13, 2026, 19:26 UTC

1 28938U 06004B   26256.81022073  .00006173  00000-0  73804-3 0  9996
2 28938  28.3002 116.6186 6602223 309.1662   8.7259  3.19689756203633

Śledź H-2A R/B w czasie rzeczywistym z AllMySat

Download on the App Store